Preview of NWS' New Version of Forecast
This preview is not operational and should not be used for support decisions.
Latest weather observations around

Houston Intercontinental Airport (KIAH)

Using English Units (Switch to International System of Units)
Date/ Time (CDT) Wind (mph) Vis. (mi) Weather Sky Cond. Temp (°F) Rel. Humidity Wind Chill (°F) Heat Index (°F) Pressure Precip. (in)
Air Dwpt 6 hour Altimeter (inHg) Sea level (inHg) 1 hr 3 hr 6 hr
Max Min
Aug 23 05:53 Calm 10 Partly Cloudy FEW020 SCT250 78 75     90%   80 29.91 29.9      
Aug 23 04:53 Calm 10 Partly Cloudy FEW022 SCT250 78 75     90%   80 29.9 29.9      
Aug 23 03:53 Calm 10 Partly Cloudy SCT250 79 75     88%   83 29.89 29.89      
Aug 23 02:53 SE 3 10 Mostly Clear FEW250 78 75     90%   80 29.9 29.9      
Aug 23 01:53 SE 3 10 Mostly Clear FEW250 79 75     88%   83 29.91 29.91      
Aug 23 00:53 S 3 10 Mostly Clear FEW020 FEW250 80 75     85%   85 29.92 29.92      
Aug 22 23:53 SSE 6 10 Mostly Clear FEW025 FEW250 83 75     77%   90 29.93 29.92      
Aug 22 22:53 S 6 10 Mostly Clear FEW025 FEW250 83 74     74%   89 29.93 29.93      
Aug 22 21:53 SSE 7 10 Partly Cloudy FEW025 SCT250 84 74     72%   91 29.92 29.91      
Aug 22 20:53 SE 14 10 Partly Cloudy FEW030 SCT250 85 74     70%   92 29.9 29.9      
Aug 22 19:53 SSE 15 10 Mostly Cloudy FEW035 BKN250 86 72     63%   92 29.89 29.89      
Aug 22 18:53 SE 17 10 Mostly Cloudy FEW040 BKN250 89 71     55%   95 29.88 29.88      
Aug 22 17:53   10 Partly Cloudy FEW045 SCT250 90 73     58%   98 29.87 29.86      
Aug 22 16:53   10 Partly Cloudy SCT045 SCT250 92 73     54%   101 29.87 29.87      
Aug 22 15:53 SE 13 10 Partly Cloudy SCT045 SCT250 95 70     44%   102 29.89 29.88      
Aug 22 14:53 SSE 14 10 Partly Cloudy FEW045 FEW110 SCT250 94 71     48%   101 29.9 29.9      
Aug 22 13:53 ESE 7 10 Mostly Cloudy FEW040 SCT100 BKN250 95 71     46%   103 29.92 29.91      
Aug 22 12:53 S 6 10 Mostly Cloudy SCT030 SCT100 BKN250 89 74     61%   98 29.95 29.95 0   0
Aug 22 12:37 SSE 11 10 Light Rain SCT030 SCT100 BKN250 89 72     57%   96 29.96   0    
Aug 22 12:14 SSE 7 10 Thunderstorms SCT030 SCT110 BKN250 88 74     63%   97 29.98        
Aug 22 11:53 SSE 6 10 Mostly Cloudy SCT030 SCT110 BKN250 88 74     63%   97 29.97 29.97 0    
Aug 22 11:17 SW 7 10 Light Rain BKN030 BKN110 BKN250 88 74     63%   97 29.99   0    
Aug 22 10:53 ESE 10 10 Mostly Cloudy SCT030 SCT110 BKN250 91 75     60%   102 29.98 29.98      
Aug 22 09:53 SSE 6 10 Partly Cloudy SCT025 SCT250 88 75     66%   98 29.98 29.98      
Aug 22 08:53 SE 5 10 Mostly Clear FEW025 FEW250 85 76     75%   94 29.98 29.98      
Aug 22 07:53 ENE 3 10 Mostly Clear FEW025 79 75     88%   83 29.98 29.97      
Aug 22 06:53 Calm 10 Mostly Clear FEW025 76 74     94%   78 29.96 29.95      
Aug 22 05:53 Calm 10 Mostly Clear FEW025 77 73     88%   79 29.95 29.95      
Aug 22 04:53 Calm 10 Clear CLR 77 73     88%   79 29.94 29.93      
Aug 22 03:53 S 3 10 Mostly Clear FEW025 80 74     82%   85 29.95 29.94      
Aug 22 02:53 SSE 5 10 Mostly Clear FEW025 79 74     85%   83 29.96 29.96      
Aug 22 01:53 S 3 10 Clear CLR 81 74     79%   86 29.96 29.96      
Aug 22 00:53 S 5 10 Clear CLR 81 74     79%   86 29.96 29.96      
Aug 21 23:53 S 3 10 Clear CLR 81 74     79%   86 29.97 29.97      
Aug 21 22:53 S 6 10 Mostly Clear FEW250 84 74     72%   91 29.97 29.97      
Aug 21 21:53 S 8 10 Mostly Clear FEW250 85 72     65%   91 29.97 29.96      
Aug 21 20:53 S 9 10 Partly Cloudy SCT250 87 71     59%   93 29.95 29.95      
Aug 21 19:53 S 7 10 Partly Cloudy FEW070 SCT250 88 70     55%   93 29.94 29.94      
Aug 21 18:53 S 8 10 Mostly Cloudy FEW047 FEW180 BKN250 91 69     49%   96 29.94 29.93      
Aug 21 17:53 SSW 7 10 Mostly Cloudy FEW050 FEW180 BKN250 92 71     51%   99 29.95 29.94      
Aug 21 16:53 SW 6 10 Mostly Cloudy FEW050 SCT120 SCT180 BKN250 89 70     53%   94 29.95 29.95      
Aug 21 15:53 S 13 10 Mostly Cloudy SCT050 SCT100 BKN250 93 71     49%   100 29.96 29.96      
Aug 21 14:53 Calm 10 Mostly Cloudy SCT055 SCT110 BKN250 94 67     41%   98 29.98 29.97      
Aug 21 13:53 S 6 10 Partly Cloudy SCT055 SCT100 SCT250 96 68     40%   101 30 29.99      
Aug 21 12:53 SW 5 10 Mostly Cloudy SCT050 SCT100 BKN250 92 68     46%   96 30.02 30.02      
Aug 21 11:53 SW 7 10 Light Rain SCT045 92 70     49%   98 30.05 30.04      
Aug 21 10:53 SSW 6 10 Partly Cloudy SCT035 92 73     54%   101 30.05 30.05      
Aug 21 09:53 SW 5 10 Partly Cloudy SCT025 87 74     65%   95 30.04 30.03      
Aug 21 08:53 SW 7 10 Mostly Clear FEW020 FEW250 85 76     75%   94 30.02 30.02      
Aug 21 07:53 Calm 10 Mostly Clear FEW015 FEW180 FEW250 82 76     82%   89 30.01 30.01      
Aug 21 06:53 Calm 9 Partly Cloudy SCT180 SCT250 77 75     94%   79 30 30      
Aug 21 05:53 SSW 3 8 Mostly Cloudy SCT180 BKN250 77 75     94%   79 29.99 29.99      
Aug 21 04:53 Calm 10 Mostly Cloudy FEW022 BKN250 77 75     94%   79 30 29.99      
Aug 21 03:53 Calm 10 Partly Cloudy FEW025 SCT250 78 75     90%   80 30 30      
Aug 21 02:53 Calm 10 Partly Cloudy SCT250 78 75     90%   80 30.01 30      
Aug 21 01:53 Calm 10 Partly Cloudy FEW180 SCT250 79 75     88%   83 30.02 30.02      
Aug 21 00:53 Calm 10 Mostly Cloudy FEW180 BKN250 79 75     88%   83 30.02 30.02      
Aug 20 23:53 S 6 10 Mostly Cloudy BKN250 83 75     77%   90 30.02 30.01      
Aug 20 22:53 S 6 10 Mostly Cloudy BKN250 83 74     74%   89 30.02 30.01      
Aug 20 21:53 S 5 10 Mostly Cloudy FEW130 BKN250 83 73     72%   89 30 29.99      
Aug 20 20:53 S 5 10 Mostly Cloudy FEW090 FEW130 BKN250 85 72     65%   91 29.98 29.98      
Aug 20 19:53 S 5 10 Mostly Cloudy FEW090 SCT130 BKN250 87 71     59%   93 29.97 29.97      
Aug 20 18:53 SSW 6 10 Mostly Cloudy FEW040 SCT100 SCT130 BKN250 89 70     53%   94 29.98 29.98     0
Aug 20 17:53 SW 7 10 Mostly Cloudy FEW040 FEW065 SCT095 BKN130 BKN250 91 70     50%   97 29.99 29.98      
Aug 20 16:53 S 6 10 Mostly Cloudy FEW040 SCT065 BKN090 BKN130 BKN250 89 71     55%   95 30 30      
Aug 20 15:53 SW 8 10 Mostly Cloudy FEW035 BKN120 BKN250 88 73     61%   96 30.02 30.01   0  
Aug 20 14:53 S 8 10 Cloudy SCT030 BKN100 OVC250 83 74     74%   89 30.04 30.04 0    
Aug 20 13:53 S 10 10 Cloudy BKN030 BKN090 OVC250 81 74     79%   86 30.06 30.05 0    
Aug 20 13:07 SE 3 4 Rain and Fog/Mist SCT040 BKN090 OVC250 79 75     88%   83 30.03   0    
Notice The following observation data may not be complete
Aug 20 12:53 SSE 10 2.5 Heavy Rain and Fog/Mist SKC BKN040 OVC090   74      %     30.04 30.04 0   0
Aug 20 12:35 3 1 Heavy Rain SKC BKN040 OVC090 84 76     77%   93 30.04   0    
Aug 20 11:53 Calm 10 Cloudy BKN035 BKN075 OVC250 92 73     54%   101 30.03 30.03      
Aug 20 10:53 WSW 6 10 Mostly Cloudy BKN030 BKN250 91 73     56%   100 30.04 30.03      
Aug 20 09:53 WSW 6 10 Mostly Cloudy BKN020 BKN250 88 75     66%   98 30.04 30.03      
Aug 20 09:29 SW 6 10 Mostly Cloudy BKN020 BKN250 88 77     70%   100 30.04        
Aug 20 08:53 Calm 10 Partly Cloudy SCT016 SCT250 88 77     70%   100 30.04 30.03      
Aug 20 07:53 Calm 7 Partly Cloudy FEW010 SCT250 81 77     88%   88 30.03 30.02      
Aug 20 06:53 Calm 7 Mostly Clear FEW020 FEW250 79 76     90%   83 30.02 30.01      
May 15 10:53 SW 5 10 Mostly Cloudy FEW030 BKN180 BKN250 83 68     61%   86 29.99 29.99      
May 15 05:53 Calm 7 Fog FEW008 FEW250 66 66     100%     29.92 29.91      
May 14 16:53   10 Mostly Cloudy FEW065 BKN250 90 68     49%   94 29.91 29.91      
May 11 14:53 S 13 10 Partly Cloudy SCT050 89 65     45%   91 29.95 29.95      
Jun 10 20:53 SE 15 10 Mostly Clear FEW035 79 70     74%   82 29.89 29.89      
Jun 09 22:53 S 3 10 Mostly Cloudy FEW050 SCT180 BKN250 75 65     71%   76 29.91 29.91      
Jun 09 06:53 Calm 10 Partly Cloudy FEW070 SCT250 69 65     87%     29.91 29.91      
Jun 08 18:53 NE 8 10 Mostly Clear FEW070 FEW250 86 60     42%   86 29.86 29.86      
Jun 06 09:53 NNW 7 10 Mostly Clear FEW020 81 73     77%   86 29.78 29.78      
Jun 06 06:53 WNW 3 10 Mostly Clear FEW020 FEW070 FEW250 73 71     94%   74 29.77 29.77      
Notice The following observation data may not be complete
Jun 05 18:23   0.5 Thunderstorms and Heavy Rain and Fog/Mist SCT024 SCT042 BKN070 BKN130 BKN250          %         0